Theta_e
320 313 311 302 292 289 286 291 295 299 300 310 313 310 306 304 305 300 313 316 320 320 323 325 332 338 342 342 342 343 342 346 346 346 346 345 344 344 343 343 345 344 344 343 341 341 340 338 335
318 312 303 293 286 283 285 292 297 300 306 311 310 307 303 302 305 306 308 316 317 317 320 323 330 335 338 342 341 341 341 341 345 346 345 345 344 343 343 343 346 344 342 341 339 339 339 336 335
313 310 298 289 285 284 286 292 293 302 307 310 304 305 300 300 305 306 310 316 316 314 318 319 327 331 334 337 341 338 340 340 340 343 344 344 344 342 342 342 345 343 339 337 335 335 338 336 335
305 300 295 289 286 289 292 292 294 298 300 304 305 301 302 307 305 308 312 315 313 312 315 316 324 328 331 333 338 339 338 338 337 338 339 342 343 342 342 341 342 342 339 338 335 336 337 337 336
300 294 288 287 287 291 292 294 296 296 296 297 302 301 299 305 306 307 309 315 311 310 312 313 318 322 326 330 333 335 334 336 336 336 337 337 340 341 341 341 341 341 340 337 335 338 337 335 335
296 290 285 285 287 292 293 294 296 295 296 297 296 301 302 303 302 305 311 312 311 310 311 311 312 316 319 323 328 330 333 332 330 330 335 337 337 339 339 340 340 339 340 336 335 337 336 335 333
293 288 284 285 288 289 293 295 294 294 295 295 298 294 303 299 301 307 309 310 308 307 309 307 308 309 312 316 322 325 329 330 332 332 332 334 336 339 340 338 339 339 340 336 335 335 335 333 331
294 289 286 285 287 289 292 294 296 294 294 298 298 293 296 297 302 306 306 306 305 304 306 305 305 306 306 309 318 319 325 327 328 328 327 327 330 332 333 332 336 338 339 338 336 333 333 332 329
295 287 285 286 289 289 290 290 294 296 293 296 297 295 298 300 302 300 300 301 301 303 302 303 302 302 304 307 312 314 322 325 326 326 325 327 332 328 330 329 332 335 336 336 335 334 333 330 326
291 286 287 289 287 287 291 290 291 290 291 294 294 296 297 298 297 297 296 296 297 298 300 301 300 300 302 305 305 309 318 321 325 325 326 327 330 329 326 325 326 331 331 334 335 332 328 322 318
288 285 290 291 292 292 292 291 293 290 290 293 293 295 295 295 295 296 296 296 296 297 299 300 299 299 299 301 303 307 311 318 321 324 325 326 328 329 328 326 326 327 325 331 329 326 323 319 316
288 292 292 294 294 293 290 292 291 291 292 296 296 296 295 295 295 296 296 296 295 295 297 298 299 298 299 300 301 302 308 312 316 319 322 323 324 326 325 328 329 329 331 329 324 322 322 318 317
289 290 294 294 294 292 294 290 290 290 293 296 296 296 295 295 295 296 297 297 295 294 296 297 298 298 299 300 300 301 305 309 312 318 318 321 323 324 324 325 328 328 329 328 322 321 321 320 317
291 292 292 292 291 293 291 289 291 291 291 294 295 294 295 295 295 295 295 295 295 295 295 297 298 299 300 299 299 301 303 306 313 316 317 318 320 323 324 324 327 326 327 327 325 322 322 322 319
292 288 289 290 291 290 290 286 288 292 293 293 293 294 295 295 295 295 296 295 295 295 295 295 298 299 298 298 299 300 303 308 310 314 315 316 319 319 324 324 327 326 325 325 324 322 324 322 320
288 287 282 288 289 291 287 281 290 293 290 291 291 290 292 293 294 295 296 295 294 293 293 294 298 297 297 297 298 299 301 306 310 310 313 313 316 316 321 323 326 328 325 324 323 321 321 320 318
285 278 281 285 289 288 286 282 288 290 290 289 289 289 290 291 292 293 294 294 293 293 293 293 294 295 295 297 297 297 299 306 306 309 311 310 312 314 316 322 324 327 325 323 321 321 319 317 316
279 278 281 280 285 287 284 284 288 289 289 289 288 288 289 290 291 293 292 292 291 291 291 292 293 294 294 295 295 295 297 304 305 307 307 308 309 312 316 323 323 326 324 321 320 318 317 316 317
283 281 279 282 287 285 283 283 286 288 287 287 288 287 288 289 291 290 291 291 290 289 289 290 291 292 293 292 291 292 293 298 303 305 305 306 307 311 319 323 323 325 323 321 320 318 316 315 315
284 281 280 282 287 285 284 285 287 287 287 288 288 288 288 288 289 291 290 289 288 288 288 290 291 292 293 292 292 292 293 299 301 303 303 305 306 311 322 324 323 324 323 322 319 318 314 314 313
282 280 279 279 284 285 283 277 281 286 287 288 289 289 289 288 289 289 289 288 286 286 287 290 291 292 293 293 293 293 296 300 300 300 301 303 306 309 319 323 324 324 324 321 319 317 316 312 311
280 285 283 283 280 276 281 274 277 282 285 287 288 288 288 288 289 290 288 286 286 287 287 290 292 293 294 294 291 290 293 294 296 297 300 302 305 307 316 323 323 323 323 321 319 319 317 314 312
282 286 283 282 280 278 279 274 278 282 283 285 286 288 287 288 289 289 289 289 287 287 286 289 291 292 292 292 292 290 289 294 293 296 299 301 304 305 308 315 322 322 322 321 319 317 316 316 315
287 284 283 282 279 269 279 273 275 279 281 283 285 286 288 288 288 289 289 289 286 286 286 288 289 290 292 291 290 290 290 290 292 296 297 300 301 303 304 307 314 320 321 320 319 318 317 317 316
284 279 270 272 271 271 278 274 277 280 282 283 285 286 287 288 288 288 287 287 286 285 285 288 288 289 290 290 290 290 291 291 294 295 296 298 299 300 301 304 309 313 317 321 321 319 317 316 314
281 278 272 268 271 272 276 275 279 282 285 287 287 288 288 287 288 288 288 287 286 285 285 286 288 290 290 290 291 292 292 293 294 295 296 298 299 300 301 303 307 309 314 318 321 320 319 317 316
281 277 281 272 268 272 275 278 282 284 284 285 286 287 287 287 288 288 287 287 286 284 285 285 288 289 290 291 291 291 292 291 291 295 296 297 298 300 301 303 305 308 311 314 320 319 318 318 317
282 283 276 274 269 270 273 275 278 280 281 284 286 286 285 285 286 287 287 286 286 284 284 285 287 289 289 290 291 292 291 291 292 293 295 296 297 300 301 302 305 306 309 313 317 319 318 316 315
279 277 278 279 276 271 269 276 282 282 282 283 285 286 284 284 284 285 286 286 286 284 284 284 286 288 289 291 292 291 291 291 291 291 293 295 297 299 300 301 303 304 307 311 316 316 316 315 314
282 281 279 274 272 272 273 276 284 284 284 285 285 286 285 284 284 284 285 285 285 285 283 284 285 287 288 290 291 292 291 292 292 292 293 294 295 298 299 300 301 302 304 309 313 312 312 311 309
Wind_Speed
8 6 3 6 6 6 3 3 2 3 2 4 5 5 5 4 2 2 3 4 6 9 11 13 22 20 20 8 8 8 9 8 9 9 9 9 10 12 14 14 11 12 17 16 16 16 16 16 15
4 2 5 3 7 4 3 4 2 2 4 6 5 2 6 2 1 2 4 6 5 8 10 11 20 21 19 17 6 7 8 7 8 10 10 11 11 11 14 14 14 16 16 15 14 15 16 16 16
4 2 5 6 5 4 4 3 2 1 3 3 3 6 2 1 1 2 2 2 6 7 10 11 18 19 20 18 16 4 9 8 6 7 8 10 11 11 12 13 14 15 15 15 14 14 15 17 17
2 5 5 6 4 1 7 3 0 3 4 6 3 5 1 1 1 2 4 1 6 6 7 11 17 18 18 18 17 7 6 6 4 7 6 9 11 11 13 12 13 15 14 16 14 15 15 15 16
4 3 5 4 2 3 2 2 4 3 2 4 2 3 3 2 3 4 5 3 5 6 6 7 16 16 16 15 15 10 7 11 10 9 6 5 8 9 13 13 17 17 16 16 15 16 15 14 13
4 3 6 3 3 3 2 2 4 3 3 2 3 4 3 2 2 4 3 4 4 6 6 6 12 16 16 15 14 12 3 3 6 3 11 6 6 8 12 13 16 16 17 15 15 15 13 14 12
4 4 5 4 6 1 2 1 3 4 2 3 3 2 2 4 2 3 6 4 3 5 5 5 6 10 14 15 12 13 9 4 2 4 2 7 3 4 9 13 14 18 19 15 15 14 13 11 10
5 4 3 2 5 4 2 1 3 2 4 1 3 4 4 3 2 4 4 4 4 5 5 6 6 6 7 8 11 14 10 4 3 6 8 10 3 3 5 9 13 16 18 18 15 14 11 10 9
3 5 2 4 5 3 1 1 4 1 1 2 2 3 2 3 4 2 3 4 3 4 5 5 6 6 6 7 7 12 11 6 4 4 4 4 3 2 3 4 10 15 17 18 16 14 13 9 8
6 4 5 1 2 2 1 1 2 1 2 4 1 1 1 1 1 0 2 4 3 4 5 4 6 7 7 6 6 6 7 6 3 0 1 3 1 2 4 5 9 12 14 18 16 14 11 7 3
2 3 4 1 3 2 1 1 5 2 5 6 7 6 3 2 3 3 4 3 3 3 3 6 5 6 7 6 4 3 3 4 4 3 3 3 1 2 3 0 3 5 9 7 9 9 4 4 4
6 4 5 4 0 2 1 4 7 5 8 4 7 5 3 4 5 6 5 4 3 4 4 5 6 5 6 5 4 4 4 3 3 4 3 2 3 3 1 0 3 6 6 9 8 4 5 4 4
4 3 4 3 4 3 2 3 5 11 10 4 5 6 7 6 8 6 5 5 2 3 4 4 5 5 5 5 5 4 4 4 4 2 3 3 5 3 4 3 4 4 4 8 9 7 6 4 4
2 3 4 3 2 2 3 2 5 7 2 7 7 9 9 8 10 5 6 6 4 3 3 3 4 4 5 5 6 5 4 5 5 3 3 5 4 3 4 4 7 6 5 5 9 9 7 6 4
6 3 3 3 2 2 1 2 8 10 2 7 9 9 9 10 8 10 7 7 5 2 2 3 3 4 5 6 5 5 4 6 5 3 5 6 4 6 5 4 6 7 7 8 7 6 4 4 4
2 3 3 3 1 3 2 8 7 5 7 10 10 9 9 11 11 8 7 6 4 2 2 3 2 4 5 5 4 5 4 4 4 4 4 6 7 7 6 5 6 7 8 8 8 9 7 6 7
5 2 3 4 2 3 2 8 6 3 5 10 9 9 9 8 8 7 7 6 5 3 1 1 3 4 6 5 5 5 5 4 4 4 3 6 8 8 9 8 7 13 8 8 8 8 8 7 7
3 1 3 4 1 3 5 17 11 8 7 13 8 9 9 8 10 7 7 6 4 1 2 0 2 5 6 4 5 3 3 3 4 4 4 7 7 10 10 9 9 9 10 8 7 9 6 6 6
3 1 3 3 1 4 7 10 13 9 5 7 8 8 6 6 5 4 5 5 4 1 2 3 4 5 3 3 4 3 3 4 4 4 8 9 8 11 13 10 9 10 9 11 11 8 9 3 3
3 1 3 6 2 3 7 17 10 5 6 7 8 7 6 4 4 5 5 5 1 1 2 3 4 4 3 2 2 2 3 3 3 5 8 9 10 10 9 12 10 10 8 11 10 11 4 3 5
2 2 1 4 8 4 7 8 5 3 3 3 5 4 3 5 7 4 5 5 3 2 3 3 3 5 3 4 3 3 3 2 2 5 7 8 10 9 6 13 11 10 9 8 11 10 10 6 3
2 2 0 3 5 3 3 6 4 3 5 5 8 6 6 6 5 3 5 5 5 4 3 3 4 4 4 5 4 3 2 3 2 6 6 8 10 10 4 12 11 12 8 9 10 9 9 5 8
2 0 0 1 1 3 3 3 8 3 3 8 8 7 6 6 7 6 5 4 3 3 1 1 2 3 3 4 4 3 3 2 3 4 6 8 7 9 7 7 8 8 7 8 10 10 10 5 7
2 1 3 3 2 4 2 4 7 2 4 4 4 5 6 6 6 6 1 4 3 1 1 1 2 2 3 4 5 5 5 5 4 6 6 5 5 7 11 9 6 5 7 10 9 8 9 8 6
2 4 5 8 6 6 2 3 10 4 4 4 6 6 6 5 4 5 4 3 4 2 2 2 2 2 3 4 4 5 6 5 4 5 5 7 5 4 7 7 5 4 3 5 6 7 6 7 5
2 3 7 5 2 6 3 6 5 5 3 3 5 4 3 3 3 6 5 4 4 3 2 2 3 2 4 4 5 4 5 3 4 4 5 4 3 3 6 4 4 4 4 3 4 5 5 5 4
1 1 1 7 1 3 4 8 6 4 6 6 6 5 4 3 4 6 3 4 5 3 1 3 3 2 3 3 3 4 3 4 3 6 5 4 6 5 5 6 5 5 4 3 3 4 6 7 5
0 2 3 4 1 5 6 6 6 5 7 7 7 8 5 3 4 4 3 4 4 3 2 1 3 3 4 3 3 4 5 4 5 4 5 7 7 6 6 5 5 5 3 3 2 6 5 6 3
1 1 2 2 3 5 2 8 8 7 6 9 9 8 7 6 5 3 3 3 4 3 2 1 2 4 4 4 5 4 3 4 4 4 4 3 4 6 6 6 5 4 2 2 3 5 6 7 5
2 2 4 5 5 1 2 11 3 7 5 5 8 8 5 5 5 4 4 4 3 3 2 1 2 2 3 3 3 4 3 3 3 4 5 5 5 4 3 5 5 4 2 2 4 5 5 6 6
Wind_Direction
333 320 100 43 58 59 30 19 300 10 23 338 342 86 110 46 53 249 229 354 355 351 344 347 352 359 4 341 319 282 245 209 196 181 174 177 170 162 156 158 146 140 127 120 116 111 111 108 109
332 350 45 91 84 74 296 318 120 332 144 133 71 6 45 101 57 323 355 10 9 359 345 347 350 359 6 1 314 314 276 243 206 186 175 178 181 178 168 168 149 133 131 129 124 125 124 121 120
316 332 83 97 109 130 167 248 308 13 51 113 96 54 82 244 237 302 332 326 28 4 348 351 351 357 2 3 5 314 311 279 250 214 186 180 183 179 183 171 156 140 133 130 138 140 136 137 133
35 11 31 78 129 174 159 235 210 164 19 27 120 72 332 64 276 251 311 330 53 9 352 352 355 355 357 360 11 45 40 7 334 289 218 199 191 188 184 178 144 140 136 141 136 145 142 135 131
34 54 63 83 79 133 214 150 60 46 63 349 289 178 179 273 272 307 332 39 40 15 1 355 360 354 353 357 359 21 55 51 33 352 303 230 207 187 183 178 163 145 140 137 144 140 142 128 124
38 92 64 151 151 165 244 332 110 80 339 342 52 148 194 261 268 321 44 80 44 19 3 356 356 355 350 349 359 357 56 133 129 28 327 298 234 190 186 182 165 146 135 142 148 141 144 133 129
101 79 156 136 155 123 225 296 97 141 189 260 170 205 204 245 0 72 89 94 59 24 10 353 351 347 346 339 344 351 357 26 35 91 194 304 275 228 190 187 174 155 145 150 152 147 140 140 136
104 91 94 83 188 211 249 48 133 135 252 123 141 203 245 211 114 76 77 45 29 8 5 351 346 339 334 330 335 342 326 341 67 51 21 354 320 287 221 194 180 170 151 152 146 137 130 150 137
89 62 149 178 163 185 10 136 326 357 167 224 212 165 166 153 111 66 3 343 343 344 354 355 341 335 332 325 340 336 329 310 290 69 16 4 351 308 296 218 189 165 157 150 149 150 143 133 129
73 95 188 348 124 134 193 131 237 359 304 263 250 129 79 132 125 48 305 301 328 338 332 355 340 334 330 331 332 317 325 310 329 269 11 299 19 25 312 222 198 177 164 148 139 124 121 110 100
62 139 144 334 156 139 31 36 329 268 262 212 213 216 244 238 271 302 314 296 303 309 335 334 333 333 332 326 329 315 327 318 332 341 69 226 158 139 347 223 178 165 156 136 129 124 119 147 133
91 44 137 192 252 102 91 314 314 226 239 204 203 197 214 251 273 256 258 262 288 324 318 328 323 331 328 319 318 318 316 321 309 292 335 333 248 153 85 247 160 154 159 146 125 135 127 137 164
85 154 99 179 189 160 134 281 252 272 260 219 210 218 242 248 250 242 238 231 259 311 313 312 314 312 316 322 316 314 314 308 285 290 323 293 272 189 163 208 127 148 173 149 140 164 145 186 154
107 115 147 223 266 261 202 240 35 287 217 214 237 249 250 242 233 231 230 241 240 248 282 295 314 309 319 316 312 313 312 301 318 316 291 279 272 253 194 193 159 156 155 147 148 167 167 168 157
126 85 346 245 238 263 185 299 224 243 201 227 252 258 263 250 241 227 226 226 217 238 280 305 311 354 340 321 318 320 309 314 302 310 304 301 273 285 226 187 162 167 168 156 144 157 153 128 176
89 60 27 257 275 211 89 267 261 254 186 247 268 277 273 265 233 236 233 217 209 216 290 319 350 348 335 324 318 304 302 293 292 301 299 298 274 267 254 205 183 171 176 170 164 171 174 171 189
8 229 214 290 262 281 202 265 258 152 194 261 262 272 277 291 262 243 218 202 203 208 259 309 329 343 333 326 313 298 310 312 314 286 289 294 285 264 263 204 211 166 163 173 178 174 178 173 175
200 266 286 254 283 280 271 265 275 264 226 245 255 278 289 299 264 228 198 202 205 197 139 182 333 347 339 338 316 305 320 360 300 300 294 301 283 273 230 202 198 182 163 168 178 165 171 164 159
142 219 264 263 54 333 242 270 272 266 255 259 257 267 276 319 299 177 196 204 187 106 58 354 350 349 353 349 336 334 327 305 307 320 316 299 292 282 211 193 189 165 168 168 174 160 161 145 131
78 255 274 281 253 351 302 291 277 236 231 205 230 250 263 281 255 242 208 207 99 93 331 342 358 348 347 355 302 290 293 294 292 317 302 297 302 283 217 187 178 173 168 171 169 172 137 112 161
44 219 228 253 323 253 320 288 352 25 234 211 243 240 274 272 271 238 209 199 145 221 280 350 331 342 355 357 336 325 312 313 326 324 310 314 303 302 242 182 168 168 167 171 176 169 164 157 179
283 159 293 313 13 279 37 279 324 341 288 272 269 274 269 273 274 244 193 177 195 218 259 20 340 357 2 7 2 10 339 334 305 302 298 307 300 356 313 159 155 161 164 170 180 170 169 150 176
281 321 238 0 320 346 337 60 268 338 297 274 272 253 257 258 253 264 228 187 181 174 250 36 344 2 16 13 347 348 331 308 290 294 325 319 316 1 24 64 128 143 156 161 167 171 165 166 164
321 312 41 56 44 28 278 109 288 215 217 289 280 251 251 245 256 274 209 140 143 162 312 341 11 6 33 17 348 338 327 348 341 341 351 339 336 12 9 26 62 97 145 160 168 167 172 164 160
80 46 338 354 11 215 11 34 245 249 247 228 235 240 222 216 245 274 236 202 172 208 288 326 42 17 27 30 346 335 335 349 342 351 346 352 339 13 16 2 50 63 68 131 136 163 166 161 162
73 130 151 228 282 275 0 238 235 217 186 200 202 203 184 235 240 248 235 181 180 183 299 333 47 20 23 25 352 349 344 340 352 349 348 347 351 4 355 350 39 63 77 79 145 163 173 150 153
252 42 160 102 32 28 253 285 302 216 243 230 230 214 227 194 189 237 208 179 155 176 247 314 2 39 51 33 359 355 4 353 353 2 348 340 351 2 357 357 12 47 72 88 163 143 155 160 155
310 142 49 3 357 302 293 284 246 250 233 242 251 241 221 197 184 207 210 186 151 163 134 348 344 25 4 2 86 14 349 353 2 36 12 354 342 343 1 1 9 14 34 91 132 165 152 144 130
44 36 74 118 131 180 287 274 207 215 204 205 232 236 224 228 224 209 212 190 156 136 124 111 21 355 24 2 351 37 9 0 2 7 10 354 324 353 5 357 9 359 355 117 121 125 148 144 139
300 222 158 122 270 290 152 273 205 222 214 203 226 238 222 205 220 204 211 180 178 162 145 131 85 30 19 11 356 3 16 2 33 1 351 352 359 349 1 18 14 339 3 70 134 136 111 130 121